Weather Roundup
Issued by NWS

Home | Current Version | Previous Version | Text Only | Print | Product List | Glossary On
Versions: 1 2 3 4 5 6 7 8 9 10 11 12 13 14 15 16 17 18 19 20 21 22 23 24 25 26 27 28 29 30 31 32 33 34 35 36 37 38 39 40 41 42 43 44 45 46 47 48 49 50
000
NZUS93 KARX 040810
HRRWXR

CURRENT HOURLY OBSERVATIONS ACROSS
MUCH OF THE UPPER MISSISSIPPI VALLEY
NATIONAL WEATHER SERVICE LA CROSSE WI
300 AM CDT MON MAY 04 2015


...SOUTHEAST MINNESOTA...


CITY           SKY/WX    TMP DP  RH WIND       PRES   REMARKS
ROCHESTER      CLOUDY    56  53  90 N9        29.97R
ROCHESTER/MAYO FAIR      55  54  96 NW5       29.96R
WINONA         CLOUDY    59  57  94 NW7       29.94R
AUSTIN         CLOUDY    55  52  88 N7        29.95R
ALBERT LEA     MOCLDY    55  50  82 N8        29.95S
DODGE CENTER   PTCLDY    54  50  87 N3        29.96R
PRESTON        CLOUDY    55  55  97 N10       29.95R FOG
OWATONNA       PTCLDY    54  46  76 N6        29.97R
FARIBAULT      PTCLDY    54  46  76 NW5       29.98R
$$

...ELSEWHERE IN MINNESOTA...


CITY           SKY/WX    TMP DP  RH WIND       PRES   REMARKS
MINNEAPOLIS    MOCLDY    55  43  63 NW6       29.99R
INTNL FALLS    CLEAR     31  28  89 CALM      30.05R
DULUTH         CLEAR     49  33  54 NW8       30.01R
RED WING       PTCLDY    55  46  71 N5        29.95F
REDWOOD FALLS  CLEAR     53  30  41 NW7       30.02S
MANKATO          N/A    N/A N/A N/A MISG        N/A
WORTHINGTON    PTCLDY    54  27  35 N13       30.03S
FAIRMONT       MOCLDY    55  36  47 N13       29.98R
$$

...SOUTHWEST WISCONSIN...


CITY           SKY/WX    TMP DP  RH WIND       PRES   REMARKS
LA CROSSE      CLOUDY    61  58  90 N7        29.92R
PRAIRIE DU CHI CLOUDY    57  56  96 CALM      29.90R
BOSCOBEL       CLOUDY    57  56  96 CALM      29.89F FOG
LONE ROCK      CLOUDY    58  55  90 CALM      29.89S
PLATTEVILLE    CLOUDY    58  56  96 SE6       29.91S
FORT MC COY    CLOUDY    57  56  96 CALM      29.93R
CAMP DOUGLAS   CLOUDY    57  57 100 NW3       29.91S
VIROQUA        CLOUDY    55  55 100 NW3       29.92R VSB 3/4
WIS DELLS      NOT AVBL
$$

...ELSEWHERE IN WISCONSIN...


CITY           SKY/WX    TMP DP  RH WIND       PRES   REMARKS
MILWAUKEE      CLOUDY    65  54  67 NW10G21   29.89F
MADISON        CLOUDY    59  57  93 S6        29.90F
GREEN BAY      CLOUDY    60  57  89 NE3       29.85F
EAU CLAIRE     PTCLDY    54  49  83 N6        29.94S
BLACK RVR FLS  CLOUDY    58  58 100 N3        29.93R
MEDFORD        CLOUDY    53  50  90 NW7       29.93S
WAUSAU         CLOUDY    55  53  93 NW8       29.89R
WIS RAPIDS     CLOUDY    56  54  93 CALM      29.92R FOG
MARSHFIELD     CLOUDY    56  56 100 NW9       29.92R
RICE LAKE      CLEAR     51  42  70 NW6       29.99S
$$

...NORTHEAST IOWA...


CITY           SKY/WX    TMP DP  RH WIND       PRES   REMARKS
DECORAH        FOG       57  57 100 CALM      29.91R VSB 1/2
MASON CITY     CLOUDY    55  53  93 N10       29.94S
CHARLES CITY   CLOUDY    57  57 100 N8        29.92R
OELWEIN        LGT RAIN  59  59 100 SW6       29.93S
$$

...ELSEWHERE IN IOWA...


CITY           SKY/WX    TMP DP  RH WIND       PRES   REMARKS
DES MOINES     CLOUDY    67  56  67 N10       29.88R
IOWA CITY      LGT RAIN  60  58  92 SE9       29.92F
FORT DODGE     CLOUDY    57  52  82 N12G22    29.92F
$$

...NORTHERN ILLINOIS...


CITY           SKY/WX    TMP DP  RH WIND       PRES   REMARKS
CHICAGO-OHARE  CLOUDY    65  48  54 W17G24    29.93R
CHICAGO-MIDWAY CLOUDY    68  48  48 SW12      29.91F
MOLINE         TSTM      61  57  87 E6        29.97S
ROCKFORD       RAIN      60  56  86 SE8       29.95F
PEORIA         CLOUDY    67  51  56 S6        29.94F
$$

NOTE: "FAIR" INDICATES FEW OR NO CLOUDS BELOW 12,000 FEET WITH NO
SIGNIFICANT WEATHER AND/OR OBSTRUCTIONS TO VISIBILITY. WIND
SPEEDS ARE IN MILES-PER-HOUR.



USA.gov is the U.S. government's official web portal to all federal, state and local government web resources and services.